Regional Weather Roundup
Issued by NWS

Home | Current Version | Previous Version | Text Only | Print | Product List | Glossary On
Versions: 1 2 3 4 5 6 7 8 9 10 11 12 13 14 15 16 17 18 19 20 21 22 23 24 25 26 27 28 29 30 31 32 33 34 35 36 37 38 39 40 41 42 43 44 45 46 47 48 49 50
000
ASUS44 KBMX 020710
RWRAL

ALABAMA REGIONAL WEATHER ROUNDUP
NATIONAL WEATHER SERVICE BIRMINGHAM AL
200 AM CDT THU OCT 02 2014

NOTE: "FAIR" INDICATES FEW OR NO CLOUDS BELOW 12,000 FEET
WITH NO SIGNIFICANT WEATHER AND/OR OBSTRUCTIONS TO VISIBILITY.

THE REMARK "TC" DENOTES TEMPERATURE IN DEGREES CELSIUS.

ALZ001>011-014-016>018-020-020800-
NORTH ALABAMA

CITY           SKY/WX    TMP DP  RH WIND       PRES   REMARKS
MUSCLE SHOALS  CLEAR     64  57  78 CALM      29.99R
HUNTSVILLE     CLEAR     68  59  73 E3        30.00R
DECATUR        CLEAR     63  58  83 CALM      30.00R
HALEYVILLE     FAIR      67  60  78 CALM      30.02S
GADSDEN        CLEAR     61  55  82 CALM      30.02R
$$

ALZ012-013-022-023-030>036-040>044-020800-
WEST CENTRAL ALABAMA

CITY           SKY/WX    TMP DP  RH WIND       PRES   REMARKS
TUSCALOOSA     CLEAR     66  63  90 CALM      29.98S
$$

ALZ015-024>027-033>036-040>044-020800-
CENTRAL ALABAMA

CITY           SKY/WX    TMP DP  RH WIND       PRES   REMARKS
BIRMINGHAM     CLEAR     70  62  76 CALM      30.02S
MONTGOMERY     CLEAR     66  63  90 E5        30.00R
SHELBY CO ARPT CLEAR     66  62  87 CALM      30.01S
MAXWELL AFB    CLEAR     67  67 100 N1        30.00S FOG
GREENVILLE     FAIR      66  62  87 CALM      30.00S
$$

ALZ019-021-028-029-037-038-045>048-020800-
EAST CENTRAL ALABAMA

CITY           SKY/WX    TMP DP  RH WIND       PRES   REMARKS
ANNISTON       CLEAR     63  61  93 SE3       30.03R
ALEXANDER CITY CLEAR     64  62  94 CALM      30.03R
AUBURN         CLEAR     64  61  88 CALM      30.06S
$$

ALZ051>064-020800-
SOUTHWEST ALABAMA

CITY           SKY/WX    TMP DP  RH WIND       PRES   REMARKS
MOBILE         CLEAR     73  73 100 SE5       29.98
BROOKLEY FIELD CLEAR     77  75  93 SE8       29.98S
EVERGREEN      CLEAR     67  65  93 CALM      29.99S
$$

ALZ049-050-065>069-020800-
SOUTHEAST ALABAMA

CITY           SKY/WX    TMP DP  RH WIND       PRES   REMARKS
DOTHAN         CLEAR     68  66  93 SE5       30.04S
OZARK          CLEAR     67  65  93 E2        30.01R
TROY           CLEAR     64  61  90 CALM      30.01F
EUFAULA        FAIR      64  62  93 CALM      30.01S
$$


USA.gov is the U.S. government's official web portal to all federal, state and local government web resources and services.